Info for pilots

Image

Airfield Info:

EBUL
N51 08.7 - E003 28.6
ELEV 95' / 29m
RWY 07 / 25
799m * 45m (CIV) - 2980m (MIL)
Ursel Radio 135.125
Tel Aero Club Brugge : +32(0)9 374 25 75
Tel Vliegclub Ursel : +32(0)9 374 12 90

Operational Hours
FRI: 14h00LT - SS+30 MIN
SAT, SUN and HOL: TKOF and LDG: 10h00LT - SS+30 MIN
After 20h00LT to SS+30 MIN: only LDG allowed (PN)

Local Traffic Regulations
The use of the AD is subject to PPR from the OPR;
AD given in concession to the CIV club outside MIL ACT;
Solo training flights can only be performed after two reconnaissance flights with instructor. The solo training flight must be performed within six weeks after the first reconnaissance flight;
Jet aircraft operations not allowed.
Obstacles: trees between 10M AGL and 22M AGL, caution when crosswind:
North of the RWY, 75M from CL, along the whole length of the RWY;
South of the RWY, 75M from CL, and at THR RWY 25 from THR RWY 07 to 140M east of THR RWY 07

Image

Image

Watch out!

Flight Procedures
RWY 07 and 25 left hand circuit, 1.200 FT AMSL

Taxi procedures:
RWY 07 (TKOF):
taxi on the north side of the RWY to the HLDG position of RWY 07

RWY 07 (LDG):
after landing roll out to the second intersection (THR RWY 25), turn left, turn left again, taxi via the TWY to the first intersection, turn left, cross the RWY (check for landing ACFT), taxi on the south side of the RWY to the AD reporting office

RWY 25 (TKOF):
taxi on the north side of the first intersection, turn left, next turn right, taxi via the TWY to the second intersection, turn right, taxi to the HLDG of RWY 25

RWY 25 (LDG):
after landing roll out to the end of the RWY, taxi on the south side of the RWY to the AD reporting office.

Image

Current Metars - Auto refresh

EBOS - Oostende
2017/12/16 06:50 EBOS 160650Z 32013KT 9999 FEW017 BKN034 05/02 Q1012 TEMPO 4500 SHRA


EBAW - Antwerpen
2017/12/16 06:50 EBAW 160650Z 30006KT 260V330 9999 FEW027 SCT035 04/01 Q1010 TEMPO 3500 SHRAGS BKN007 SCT015CB


EBBR - Brussel
2017/12/16 06:50 EBBR 160650Z 27005KT 9999 FEW032 BKN046 02/01 Q1010 NOSIG

Source : NOAA.GOV

Current TAFs - Auto refresh

EBOS - Oostende
2017/12/16 06:27 TAF EBOS 160514Z 1606/1712 32014KT 9999 SCT015TCU SCT040 TEMPO 1606/1618 4000 SHRAGS BKN009 SCT015CB

EBAW - Antwerpen
2017/12/16 06:27 TAF TAF EBAW 160514Z 1606/1615 30006KT 7000 SCT012 SCT030 PROB40 TEMPO 1606/1615 3500 SHRAGS BKN007 SCT015CB

EBBR - Brussel
2017/12/16 06:28 TAF EBBR 160514Z 1606/1712 28006KT 8000 SCT008 BKN012 PROB40 TEMPO 1606/1621 4000 SHRAGS BKN006 SCT015CB PROB30 TEMPO 1621/1706 3500 SHRASN BKN005 SCT015TCU

Source : NOAA.GOV
Image

Webcam

Direction runway 07 :